Year,Month,Day,Hour,Minute,Value (Times are PST for temperature in C)
2018,04,24,00,00,9.60
2018,04,24,00,01,9.60
2018,04,24,00,02,9.60
2018,04,24,00,03,9.60
2018,04,24,00,04,9.60
2018,04,24,00,05,9.50
2018,04,24,00,06,9.50
2018,04,24,00,07,9.50
2018,04,24,00,08,9.50
2018,04,24,00,09,9.60
2018,04,24,00,10,9.60
2018,04,24,00,11,9.70
2018,04,24,00,12,9.70
2018,04,24,00,13,9.70
2018,04,24,00,14,9.70
2018,04,24,00,15,9.70
2018,04,24,00,16,9.70
2018,04,24,00,17,9.70
2018,04,24,00,18,9.70
2018,04,24,00,19,9.70
2018,04,24,00,20,9.70
2018,04,24,00,21,9.70
2018,04,24,00,22,9.60
2018,04,24,00,23,9.60
2018,04,24,00,24,9.60
2018,04,24,00,25,9.50
2018,04,24,00,26,9.50
2018,04,24,00,27,9.50
2018,04,24,00,28,9.50
2018,04,24,00,29,9.50
2018,04,24,00,30,9.60
2018,04,24,00,31,9.70
2018,04,24,00,32,9.70
2018,04,24,00,33,9.90
2018,04,24,00,34,9.90
2018,04,24,00,35,10.00
2018,04,24,00,36,10.10
2018,04,24,00,37,10.10
2018,04,24,00,38,10.10
2018,04,24,00,39,10.10
2018,04,24,00,40,10.10
2018,04,24,00,41,10.10
2018,04,24,00,42,10.10
2018,04,24,00,43,10.10
2018,04,24,00,44,10.10
2018,04,24,00,45,10.10
2018,04,24,00,46,10.10
2018,04,24,00,47,10.10
2018,04,24,00,48,10.10
2018,04,24,00,49,10.10
2018,04,24,00,50,10.10
2018,04,24,00,51,10.10
2018,04,24,00,52,10.10
2018,04,24,00,53,10.10
2018,04,24,00,54,9.90
2018,04,24,00,55,9.90
2018,04,24,00,56,9.80
2018,04,24,00,57,9.80
2018,04,24,00,58,9.70
2018,04,24,00,59,9.60
2018,04,24,01,00,9.50
2018,04,24,01,01,9.40
2018,04,24,01,02,9.40
2018,04,24,01,03,9.40
2018,04,24,01,04,9.30
2018,04,24,01,05,9.30
2018,04,24,01,06,9.30
2018,04,24,01,07,9.40
2018,04,24,01,08,9.40
2018,04,24,01,09,9.40
2018,04,24,01,10,9.40
2018,04,24,01,11,9.50
2018,04,24,01,12,9.50
2018,04,24,01,13,9.60
2018,04,24,01,14,9.60
2018,04,24,01,15,9.70
2018,04,24,01,16,9.70
2018,04,24,01,17,9.80
2018,04,24,01,18,9.90
2018,04,24,01,19,9.90
2018,04,24,01,20,9.90
2018,04,24,01,21,9.90
2018,04,24,01,22,10.00
2018,04,24,01,23,10.10
2018,04,24,01,24,10.10
2018,04,24,01,25,10.10
2018,04,24,01,26,10.10
2018,04,24,01,27,10.10
2018,04,24,01,28,10.00
2018,04,24,01,29,9.90
2018,04,24,01,30,9.90
2018,04,24,01,31,9.80
2018,04,24,01,32,9.80
2018,04,24,01,33,9.70
2018,04,24,01,34,9.70
2018,04,24,01,35,9.60
2018,04,24,01,36,9.60
2018,04,24,01,37,9.50
2018,04,24,01,38,9.50
2018,04,24,01,39,9.40
2018,04,24,01,40,9.40
2018,04,24,01,41,9.40
2018,04,24,01,42,9.30
2018,04,24,01,43,9.30
2018,04,24,01,44,9.30
2018,04,24,01,45,9.30
2018,04,24,01,46,9.20
2018,04,24,01,47,9.20
2018,04,24,01,48,9.20
2018,04,24,01,49,9.20
2018,04,24,01,50,9.20
2018,04,24,01,51,9.10
2018,04,24,01,52,9.10
2018,04,24,01,53,9.00
2018,04,24,01,54,9.00
2018,04,24,01,55,9.00
2018,04,24,01,56,9.00
2018,04,24,01,57,8.90
2018,04,24,01,58,8.90
2018,04,24,01,59,9.00
2018,04,24,02,00,9.00
2018,04,24,02,01,9.10
2018,04,24,02,02,9.20
2018,04,24,02,03,9.30
2018,04,24,02,04,9.40
2018,04,24,02,05,9.40
2018,04,24,02,06,9.50
2018,04,24,02,07,9.60
2018,04,24,02,08,9.60
2018,04,24,02,09,9.70
2018,04,24,02,10,9.70
2018,04,24,02,11,9.70
2018,04,24,02,12,9.80
2018,04,24,02,13,10.00
2018,04,24,02,14,10.20
2018,04,24,02,15,10.40
2018,04,24,02,16,10.50
2018,04,24,02,17,10.60
2018,04,24,02,18,10.70
2018,04,24,02,19,10.80
2018,04,24,02,20,10.80
2018,04,24,02,21,10.70
2018,04,24,02,22,10.70
2018,04,24,02,23,10.60
2018,04,24,02,24,10.60
2018,04,24,02,25,10.60
2018,04,24,02,26,10.40
2018,04,24,02,27,10.40
2018,04,24,02,28,10.40
2018,04,24,02,29,10.40
2018,04,24,02,30,10.40
2018,04,24,02,31,10.40
2018,04,24,02,32,10.40
2018,04,24,02,33,10.50
2018,04,24,02,34,10.60
2018,04,24,02,35,10.80
2018,04,24,02,36,10.90
2018,04,24,02,37,10.90
2018,04,24,02,38,10.90
2018,04,24,02,39,10.90
2018,04,24,02,40,10.90
2018,04,24,02,41,10.90
2018,04,24,02,42,10.90
2018,04,24,02,43,10.90
2018,04,24,02,44,10.90
2018,04,24,02,45,10.80
2018,04,24,02,46,10.80
2018,04,24,02,47,10.80
2018,04,24,02,48,10.70
2018,04,24,02,49,10.70
2018,04,24,02,50,10.60
2018,04,24,02,51,10.60
2018,04,24,02,52,10.70
2018,04,24,02,53,10.70
2018,04,24,02,54,10.60
2018,04,24,02,55,10.60
2018,04,24,02,56,10.50
2018,04,24,02,57,10.40
2018,04,24,02,58,10.40
2018,04,24,02,59,10.40
2018,04,24,03,00,10.40
2018,04,24,03,01,10.40
2018,04,24,03,02,10.40
2018,04,24,03,03,10.40
2018,04,24,03,04,10.40
2018,04,24,03,05,10.40
2018,04,24,03,06,10.30
2018,04,24,03,07,10.30
2018,04,24,03,08,10.30
2018,04,24,03,09,10.30
2018,04,24,03,10,10.30
2018,04,24,03,11,10.40
2018,04,24,03,12,10.40
2018,04,24,03,13,10.40
2018,04,24,03,14,10.30
2018,04,24,03,15,10.30
2018,04,24,03,16,10.30
2018,04,24,03,17,10.30
2018,04,24,03,18,10.30
2018,04,24,03,19,10.30
2018,04,24,03,20,10.40
2018,04,24,03,21,10.50
2018,04,24,03,22,10.60
2018,04,24,03,23,10.80
2018,04,24,03,24,10.80
2018,04,24,03,25,10.80
2018,04,24,03,26,10.80
2018,04,24,03,27,10.80
2018,04,24,03,28,10.80
2018,04,24,03,29,10.80
2018,04,24,03,30,10.70
2018,04,24,03,31,10.60
2018,04,24,03,32,10.50
2018,04,24,03,33,10.40
2018,04,24,03,34,10.30
2018,04,24,03,35,10.30
2018,04,24,03,36,10.20
2018,04,24,03,37,10.20
2018,04,24,03,38,10.20
2018,04,24,03,39,10.20
2018,04,24,03,40,10.10
2018,04,24,03,41,10.10
2018,04,24,03,42,10.10
2018,04,24,03,43,10.10
2018,04,24,03,44,10.10
2018,04,24,03,45,10.10
2018,04,24,03,46,10.10
2018,04,24,03,47,10.10
2018,04,24,03,48,10.10
2018,04,24,03,49,10.10
2018,04,24,03,50,10.00
2018,04,24,03,51,9.90
2018,04,24,03,52,9.90
2018,04,24,03,53,9.90
2018,04,24,03,54,9.90
2018,04,24,03,55,9.80
2018,04,24,03,56,9.70
2018,04,24,03,57,9.70
2018,04,24,03,58,9.70
2018,04,24,03,59,9.60
2018,04,24,04,00,9.50
2018,04,24,04,01,9.50
2018,04,24,04,02,9.40
2018,04,24,04,03,9.30
2018,04,24,04,04,9.20
2018,04,24,04,05,9.20
2018,04,24,04,06,9.10
2018,04,24,04,07,9.00
2018,04,24,04,08,9.00
2018,04,24,04,09,9.00
2018,04,24,04,10,9.00
2018,04,24,04,11,9.00
2018,04,24,04,12,9.00
2018,04,24,04,13,9.00
2018,04,24,04,14,9.00
2018,04,24,04,15,9.00
2018,04,24,04,16,9.10
2018,04,24,04,17,9.20
2018,04,24,04,18,9.20
2018,04,24,04,19,9.20
2018,04,24,04,20,9.20
2018,04,24,04,21,9.20
2018,04,24,04,22,9.20
2018,04,24,04,23,9.20
2018,04,24,04,24,9.20
2018,04,24,04,25,9.20
2018,04,24,04,26,9.20
2018,04,24,04,27,9.30
2018,04,24,04,28,9.30
2018,04,24,04,29,9.30
2018,04,24,04,30,9.30
2018,04,24,04,31,9.30
2018,04,24,04,32,9.30
2018,04,24,04,33,9.30
2018,04,24,04,34,9.40
2018,04,24,04,35,9.50
2018,04,24,04,36,9.60
2018,04,24,04,37,9.80
2018,04,24,04,38,10.00
2018,04,24,04,39,10.10
2018,04,24,04,40,10.20
2018,04,24,04,41,10.30
2018,04,24,04,42,10.40
2018,04,24,04,43,10.50
2018,04,24,04,44,10.60
2018,04,24,04,45,10.60
2018,04,24,04,46,10.70
2018,04,24,04,47,10.70
2018,04,24,04,48,10.80
2018,04,24,04,49,10.80
2018,04,24,04,50,10.80
2018,04,24,04,51,10.80
2018,04,24,04,52,10.80
2018,04,24,04,53,10.90
2018,04,24,04,54,10.90
2018,04,24,04,55,10.80
2018,04,24,04,56,10.80
2018,04,24,04,57,10.80
2018,04,24,04,58,10.80
2018,04,24,04,59,10.80
2018,04,24,05,00,10.70
2018,04,24,05,01,10.70
2018,04,24,05,02,10.80
2018,04,24,05,03,10.80
2018,04,24,05,04,10.80
2018,04,24,05,05,10.80
2018,04,24,05,06,10.80
2018,04,24,05,07,10.90
2018,04,24,05,08,10.90
2018,04,24,05,09,10.90
2018,04,24,05,10,10.90
2018,04,24,05,11,10.90
2018,04,24,05,12,10.90
2018,04,24,05,13,10.90
2018,04,24,05,14,10.90
2018,04,24,05,15,11.00
2018,04,24,05,16,11.10
2018,04,24,05,17,11.00
2018,04,24,05,18,10.90
2018,04,24,05,19,10.90
2018,04,24,05,20,10.90
2018,04,24,05,21,10.90
2018,04,24,05,22,10.90
2018,04,24,05,23,10.90
2018,04,24,05,24,10.90
2018,04,24,05,25,10.90
2018,04,24,05,26,10.90
2018,04,24,05,27,10.90
2018,04,24,05,28,10.90
2018,04,24,05,29,10.90
2018,04,24,05,30,10.90
2018,04,24,05,31,10.90
2018,04,24,05,32,10.90
2018,04,24,05,33,10.90
2018,04,24,05,34,10.90
2018,04,24,05,35,10.90
2018,04,24,05,36,10.90
2018,04,24,05,37,10.90
2018,04,24,05,38,10.90
2018,04,24,05,39,10.90
2018,04,24,05,40,10.90
2018,04,24,05,41,11.00
2018,04,24,05,42,11.10
2018,04,24,05,43,11.10
2018,04,24,05,44,11.10
2018,04,24,05,45,11.10
2018,04,24,05,46,11.10
2018,04,24,05,47,11.20
2018,04,24,05,48,11.20
2018,04,24,05,49,11.20
2018,04,24,05,50,11.30
2018,04,24,05,51,11.30
2018,04,24,05,52,11.20
2018,04,24,05,53,11.20
2018,04,24,05,54,11.10
2018,04,24,05,55,11.10
2018,04,24,05,56,11.10
2018,04,24,05,57,11.10
2018,04,24,05,58,11.10
2018,04,24,05,59,11.10
2018,04,24,06,00,11.10
2018,04,24,06,01,11.10
2018,04,24,06,02,10.90
2018,04,24,06,03,10.90
2018,04,24,06,04,10.90
2018,04,24,06,05,10.90
2018,04,24,06,06,10.90
2018,04,24,06,07,10.90
2018,04,24,06,08,10.90
2018,04,24,06,09,10.90
2018,04,24,06,10,10.90
2018,04,24,06,11,10.90
2018,04,24,06,12,10.90
2018,04,24,06,13,10.90
2018,04,24,06,14,10.90
2018,04,24,06,15,10.90
2018,04,24,06,16,10.90
2018,04,24,06,17,10.90
2018,04,24,06,18,10.90
2018,04,24,06,19,10.90
2018,04,24,06,20,10.90
2018,04,24,06,21,10.90
2018,04,24,06,22,10.90
2018,04,24,06,23,10.90
2018,04,24,06,24,10.90
2018,04,24,06,25,10.90
2018,04,24,06,26,10.90
2018,04,24,06,27,10.90
2018,04,24,06,28,10.90
2018,04,24,06,29,10.90
2018,04,24,06,30,10.90
2018,04,24,06,31,10.90
2018,04,24,06,32,10.90
2018,04,24,06,33,10.90
2018,04,24,06,34,10.90
2018,04,24,06,35,10.90
2018,04,24,06,36,10.90
2018,04,24,06,37,10.90
2018,04,24,06,38,10.90
2018,04,24,06,39,10.90
2018,04,24,06,40,11.00
2018,04,24,06,41,11.10
2018,04,24,06,42,11.10
2018,04,24,06,43,11.10
2018,04,24,06,44,11.10
2018,04,24,06,45,11.10
2018,04,24,06,46,11.10
2018,04,24,06,47,11.10
2018,04,24,06,48,11.10
2018,04,24,06,49,11.10
2018,04,24,06,50,11.10
2018,04,24,06,51,11.10
2018,04,24,06,52,11.20
2018,04,24,06,53,11.20
2018,04,24,06,54,11.20
2018,04,24,06,55,11.30
2018,04,24,06,56,11.40
2018,04,24,06,57,11.40
2018,04,24,06,58,11.50
2018,04,24,06,59,11.60
2018,04,24,07,00,11.60
2018,04,24,07,01,11.50
2018,04,24,07,02,11.40
2018,04,24,07,03,11.40
2018,04,24,07,04,11.40
2018,04,24,07,05,11.40
2018,04,24,07,06,11.40
2018,04,24,07,07,11.40
2018,04,24,07,08,11.40
2018,04,24,07,09,11.40
2018,04,24,07,10,11.40
2018,04,24,07,11,11.40
2018,04,24,07,12,11.40
2018,04,24,07,13,11.50
2018,04,24,07,14,11.60
2018,04,24,07,15,11.60
2018,04,24,07,16,11.60
2018,04,24,07,17,11.60
2018,04,24,07,18,11.60
2018,04,24,07,19,11.60
2018,04,24,07,20,11.60
2018,04,24,07,21,11.70
2018,04,24,07,22,11.70
2018,04,24,07,23,11.80
2018,04,24,07,24,11.80
2018,04,24,07,25,11.80
2018,04,24,07,26,11.80
2018,04,24,07,27,11.90
2018,04,24,07,28,11.90
2018,04,24,07,29,11.90
2018,04,24,07,30,12.00
2018,04,24,07,31,12.00
2018,04,24,07,32,12.10
2018,04,24,07,33,12.20
2018,04,24,07,34,12.20
2018,04,24,07,35,12.20
2018,04,24,07,36,12.30
2018,04,24,07,37,12.30
2018,04,24,07,38,12.40
2018,04,24,07,39,12.40
2018,04,24,07,40,12.40
2018,04,24,07,41,12.50
2018,04,24,07,42,12.50
2018,04,24,07,43,12.60
2018,04,24,07,44,12.60
2018,04,24,07,45,12.70
2018,04,24,07,46,12.70
2018,04,24,07,47,12.80
2018,04,24,07,48,12.80
2018,04,24,07,49,12.80
2018,04,24,07,50,12.80
2018,04,24,07,51,12.90
2018,04,24,07,52,12.90
2018,04,24,07,53,12.90
2018,04,24,07,54,13.00
2018,04,24,07,55,13.10
2018,04,24,07,56,13.10
2018,04,24,07,57,13.10
2018,04,24,07,58,13.20
2018,04,24,07,59,13.20
2018,04,24,08,00,13.20
2018,04,24,08,01,13.20
2018,04,24,08,02,13.30
2018,04,24,08,03,13.30
2018,04,24,08,04,13.30
2018,04,24,08,05,13.30
2018,04,24,08,06,13.30
2018,04,24,08,07,13.30
2018,04,24,08,08,13.30
2018,04,24,08,09,13.30
2018,04,24,08,10,13.30
2018,04,24,08,11,13.40
2018,04,24,08,12,13.40
2018,04,24,08,13,13.40
2018,04,24,08,14,13.40
2018,04,24,08,15,13.50
2018,04,24,08,16,13.50
2018,04,24,08,17,13.60
2018,04,24,08,18,13.70
2018,04,24,08,19,13.70
2018,04,24,08,20,13.70
2018,04,24,08,21,13.70
2018,04,24,08,22,13.70
2018,04,24,08,23,13.70
2018,04,24,08,24,13.70
2018,04,24,08,25,13.70
2018,04,24,08,26,13.70
2018,04,24,08,27,13.70
2018,04,24,08,28,13.80
2018,04,24,08,29,13.90
2018,04,24,08,30,13.90
2018,04,24,08,31,14.00
2018,04,24,08,32,14.00
2018,04,24,08,33,14.00
2018,04,24,08,34,13.90
2018,04,24,08,35,13.90
2018,04,24,08,36,13.90
2018,04,24,08,37,13.90
2018,04,24,08,38,14.00
2018,04,24,08,39,14.00
2018,04,24,08,40,14.00
2018,04,24,08,41,14.00
2018,04,24,08,42,14.00
2018,04,24,08,43,14.00
2018,04,24,08,44,14.10
2018,04,24,08,45,14.10
2018,04,24,08,46,14.10
2018,04,24,08,47,14.20
2018,04,24,08,48,14.20
2018,04,24,08,49,14.10
2018,04,24,08,50,14.20
2018,04,24,08,51,14.20
2018,04,24,08,52,14.20
2018,04,24,08,53,14.20
2018,04,24,08,54,14.20
2018,04,24,08,55,14.20
2018,04,24,08,56,14.30
2018,04,24,08,57,14.30
2018,04,24,08,58,14.30
2018,04,24,08,59,14.40
2018,04,24,09,00,14.50
2018,04,24,09,01,14.60
2018,04,24,09,02,14.60
2018,04,24,09,03,14.60
2018,04,24,09,04,14.60
2018,04,24,09,05,14.60
2018,04,24,09,06,14.70
2018,04,24,09,07,14.70
2018,04,24,09,08,14.70
2018,04,24,09,09,14.70
2018,04,24,09,10,14.70
2018,04,24,09,11,14.60
2018,04,24,09,12,14.70
2018,04,24,09,13,14.70
2018,04,24,09,14,14.70
2018,04,24,09,15,14.60
2018,04,24,09,16,14.60
2018,04,24,09,17,14.60
2018,04,24,09,18,14.60
2018,04,24,09,19,14.60
2018,04,24,09,20,14.70
2018,04,24,09,21,14.70
2018,04,24,09,22,14.80
2018,04,24,09,23,14.80
2018,04,24,09,24,14.80
2018,04,24,09,25,14.80
2018,04,24,09,26,14.80
2018,04,24,09,27,14.90
2018,04,24,09,28,14.90
2018,04,24,09,29,14.90
2018,04,24,09,30,14.90
2018,04,24,09,31,15.00
2018,04,24,09,32,15.10
2018,04,24,09,33,15.20
2018,04,24,09,34,15.30
2018,04,24,09,35,15.30
2018,04,24,09,36,15.30
2018,04,24,09,37,15.30
2018,04,24,09,38,15.30
2018,04,24,09,39,15.40
2018,04,24,09,40,15.50
2018,04,24,09,41,15.60
2018,04,24,09,42,15.60
2018,04,24,09,43,15.60
2018,04,24,09,44,15.60
2018,04,24,09,45,15.60
2018,04,24,09,46,15.60
2018,04,24,09,47,15.70
2018,04,24,09,48,15.70
2018,04,24,09,49,15.70
2018,04,24,09,50,15.70
2018,04,24,09,51,15.60
2018,04,24,09,52,15.60
2018,04,24,09,53,15.50
2018,04,24,09,54,15.60
2018,04,24,09,55,15.70
2018,04,24,09,56,15.80
2018,04,24,09,57,15.90
2018,04,24,09,58,15.90
2018,04,24,09,59,15.90
2018,04,24,10,00,15.90
2018,04,24,10,01,15.90
2018,04,24,10,02,16.00
2018,04,24,10,03,16.10
2018,04,24,10,04,16.30
2018,04,24,10,05,16.30
2018,04,24,10,06,16.20
2018,04,24,10,07,16.10
2018,04,24,10,08,16.10
2018,04,24,10,09,16.20
2018,04,24,10,10,16.20
2018,04,24,10,11,16.30
2018,04,24,10,12,16.40
2018,04,24,10,13,16.40
2018,04,24,10,14,16.60
2018,04,24,10,15,16.50
2018,04,24,10,16,16.40
2018,04,24,10,17,16.40
2018,04,24,10,18,16.40
2018,04,24,10,19,16.30
2018,04,24,10,20,16.30
2018,04,24,10,21,16.40
2018,04,24,10,22,16.50
2018,04,24,10,23,16.60
2018,04,24,10,24,16.50
2018,04,24,10,25,16.50
2018,04,24,10,26,16.40
2018,04,24,10,27,16.40
2018,04,24,10,28,16.50
2018,04,24,10,29,16.60
2018,04,24,10,30,16.60
2018,04,24,10,31,16.60
2018,04,24,10,32,16.70
2018,04,24,10,33,16.70
2018,04,24,10,34,16.70
2018,04,24,10,35,16.70
2018,04,24,10,36,16.70
2018,04,24,10,37,16.80
2018,04,24,10,38,16.80
2018,04,24,10,39,16.80
2018,04,24,10,40,16.80
2018,04,24,10,41,16.70
2018,04,24,10,42,16.70
2018,04,24,10,43,16.70
2018,04,24,10,44,16.70
2018,04,24,10,45,16.80
2018,04,24,10,46,16.90
2018,04,24,10,47,16.90
2018,04,24,10,48,16.90
2018,04,24,10,49,16.90
2018,04,24,10,50,16.80
2018,04,24,10,51,16.90
2018,04,24,10,52,17.10
2018,04,24,10,53,17.10
2018,04,24,10,54,17.00
2018,04,24,10,55,16.90
2018,04,24,10,56,16.80
2018,04,24,10,57,16.80
2018,04,24,10,58,16.80
2018,04,24,10,59,16.90
2018,04,24,11,00,16.90
2018,04,24,11,01,16.90
2018,04,24,11,02,16.80
2018,04,24,11,03,16.70
2018,04,24,11,04,16.70
2018,04,24,11,05,16.70
2018,04,24,11,06,16.70
2018,04,24,11,07,16.80
2018,04,24,11,08,16.80
2018,04,24,11,09,16.90
2018,04,24,11,10,17.00
2018,04,24,11,11,17.20
2018,04,24,11,12,17.30
2018,04,24,11,13,17.20
2018,04,24,11,14,17.20
2018,04,24,11,15,17.20
2018,04,24,11,16,17.20
2018,04,24,11,17,17.30
2018,04,24,11,18,17.20
2018,04,24,11,19,17.30
2018,04,24,11,20,17.30
2018,04,24,11,21,17.30
2018,04,24,11,22,17.30
2018,04,24,11,23,17.30
2018,04,24,11,24,17.30
2018,04,24,11,25,17.20
2018,04,24,11,26,17.20
2018,04,24,11,27,17.20
2018,04,24,11,28,17.30
2018,04,24,11,29,17.30
2018,04,24,11,30,17.30
2018,04,24,11,31,17.30
2018,04,24,11,32,17.30
2018,04,24,11,33,17.40
2018,04,24,11,34,17.50
2018,04,24,11,35,17.50
2018,04,24,11,36,17.60
2018,04,24,11,37,17.70
2018,04,24,11,38,17.80
2018,04,24,11,39,17.70
2018,04,24,11,40,17.50
2018,04,24,11,41,17.40
2018,04,24,11,42,17.30
2018,04,24,11,43,17.30
2018,04,24,11,44,17.30
2018,04,24,11,45,17.30
2018,04,24,11,46,17.30
2018,04,24,11,47,17.30
2018,04,24,11,48,17.30
2018,04,24,11,49,17.30
2018,04,24,11,50,17.30
2018,04,24,11,51,17.20
2018,04,24,11,52,17.20
2018,04,24,11,53,17.20
2018,04,24,11,54,17.30
2018,04,24,11,55,17.30
2018,04,24,11,56,17.60
2018,04,24,11,57,17.70
2018,04,24,11,58,17.70
2018,04,24,11,59,17.70
2018,04,24,12,00,17.80
2018,04,24,12,01,17.80
2018,04,24,12,02,17.90
2018,04,24,12,03,17.90
2018,04,24,12,04,17.90
2018,04,24,12,05,17.80
2018,04,24,12,06,17.70
2018,04,24,12,07,17.70
2018,04,24,12,08,17.70
2018,04,24,12,09,17.80
2018,04,24,12,10,17.90
2018,04,24,12,11,18.00
2018,04,24,12,12,18.10
2018,04,24,12,13,18.20
2018,04,24,12,14,18.30
2018,04,24,12,15,18.30
2018,04,24,12,16,18.10
2018,04,24,12,17,18.10
2018,04,24,12,18,18.10
2018,04,24,12,19,18.00
2018,04,24,12,20,18.10
2018,04,24,12,21,18.00
2018,04,24,12,22,18.00
2018,04,24,12,23,18.10
2018,04,24,12,24,18.20
2018,04,24,12,25,18.20
2018,04,24,12,26,18.10
2018,04,24,12,27,18.10
2018,04,24,12,28,17.90
2018,04,24,12,29,18.00
2018,04,24,12,30,18.10
2018,04,24,12,31,18.10
2018,04,24,12,32,18.20
2018,04,24,12,33,18.20
2018,04,24,12,34,18.20
2018,04,24,12,35,18.10
2018,04,24,12,36,18.10
2018,04,24,12,37,18.20
2018,04,24,12,38,18.20
2018,04,24,12,39,18.20
2018,04,24,12,40,18.20
2018,04,24,12,41,18.20
2018,04,24,12,42,18.30
2018,04,24,12,43,18.30
2018,04,24,12,44,18.40
2018,04,24,12,45,18.50
2018,04,24,12,46,18.40
2018,04,24,12,47,18.40
2018,04,24,12,48,18.50
2018,04,24,12,49,18.50
2018,04,24,12,50,18.50
2018,04,24,12,51,18.50
2018,04,24,12,52,18.40
2018,04,24,12,53,18.40
2018,04,24,12,54,18.50
2018,04,24,12,55,18.50
2018,04,24,12,56,18.50
2018,04,24,12,57,18.40
2018,04,24,12,58,18.30
2018,04,24,12,59,18.30
2018,04,24,13,00,18.40
2018,04,24,13,01,18.40
2018,04,24,13,02,18.40
2018,04,24,13,03,18.50
2018,04,24,13,04,18.50
2018,04,24,13,05,18.50
2018,04,24,13,06,18.50
2018,04,24,13,07,18.50
2018,04,24,13,08,18.60
2018,04,24,13,09,18.60
2018,04,24,13,10,18.70
2018,04,24,13,11,18.70
2018,04,24,13,12,18.80
2018,04,24,13,13,18.90
2018,04,24,13,14,18.90
2018,04,24,13,15,18.90
2018,04,24,13,16,19.00
2018,04,24,13,17,19.10
2018,04,24,13,18,19.10
2018,04,24,13,19,19.10
2018,04,24,13,20,19.00
2018,04,24,13,21,18.90
2018,04,24,13,22,19.00
2018,04,24,13,23,19.10
2018,04,24,13,24,19.10
2018,04,24,13,25,19.10
2018,04,24,13,26,19.20
2018,04,24,13,27,19.30
2018,04,24,13,28,19.30
2018,04,24,13,29,19.30
2018,04,24,13,30,19.40
2018,04,24,13,31,19.40
2018,04,24,13,32,19.40
2018,04,24,13,33,19.40
2018,04,24,13,34,19.50
2018,04,24,13,35,19.60
2018,04,24,13,36,19.60
2018,04,24,13,37,19.60
2018,04,24,13,38,19.40
2018,04,24,13,39,19.30
2018,04,24,13,40,19.30
2018,04,24,13,41,19.30
2018,04,24,13,42,19.20
2018,04,24,13,43,19.40
2018,04,24,13,44,19.50
2018,04,24,13,45,19.50
2018,04,24,13,46,19.40
2018,04,24,13,47,19.40
2018,04,24,13,48,19.30
2018,04,24,13,49,19.20
2018,04,24,13,50,19.20
2018,04,24,13,51,19.20
2018,04,24,13,52,19.30
2018,04,24,13,53,19.30
2018,04,24,13,54,19.30
2018,04,24,13,55,19.20
2018,04,24,13,56,19.20
2018,04,24,13,57,19.20
2018,04,24,13,58,19.20
2018,04,24,13,59,19.10
2018,04,24,14,00,19.10
2018,04,24,14,01,19.10
2018,04,24,14,02,19.10
2018,04,24,14,03,19.30
2018,04,24,14,04,19.40
2018,04,24,14,05,19.50
2018,04,24,14,06,19.60
2018,04,24,14,07,19.60
2018,04,24,14,08,19.50
2018,04,24,14,09,19.50
2018,04,24,14,10,19.50
2018,04,24,14,11,19.50
2018,04,24,14,12,19.40
2018,04,24,14,13,19.50
2018,04,24,14,14,19.50
2018,04,24,14,15,19.40
2018,04,24,14,16,19.40
2018,04,24,14,17,19.30
2018,04,24,14,18,19.30
2018,04,24,14,19,19.40
2018,04,24,14,20,19.40
2018,04,24,14,21,19.50
2018,04,24,14,22,19.50
2018,04,24,14,23,19.50
2018,04,24,14,24,19.60
2018,04,24,14,25,19.70
2018,04,24,14,26,19.80
2018,04,24,14,27,19.80
2018,04,24,14,28,19.70
2018,04,24,14,29,19.70
2018,04,24,14,30,19.70
2018,04,24,14,31,19.70
2018,04,24,14,32,19.70
2018,04,24,14,33,19.70
2018,04,24,14,34,19.80
2018,04,24,14,35,19.80
2018,04,24,14,36,19.90
2018,04,24,14,37,19.90
2018,04,24,14,38,19.90
2018,04,24,14,39,19.90
2018,04,24,14,40,19.90
2018,04,24,14,41,19.90
2018,04,24,14,42,19.90
2018,04,24,14,43,19.90
2018,04,24,14,44,19.90
2018,04,24,14,45,19.90
2018,04,24,14,46,19.90
2018,04,24,14,47,20.10
2018,04,24,14,48,20.20
2018,04,24,14,49,20.20
2018,04,24,14,50,20.20
2018,04,24,14,51,20.10
2018,04,24,14,52,20.00
2018,04,24,14,53,20.10
2018,04,24,14,54,20.10
2018,04,24,14,55,20.10
2018,04,24,14,56,20.20
2018,04,24,14,57,20.20
2018,04,24,14,58,20.20
2018,04,24,14,59,20.10
2018,04,24,15,00,20.00
2018,04,24,15,01,19.90
2018,04,24,15,02,19.80
2018,04,24,15,03,19.70
2018,04,24,15,04,19.60
2018,04,24,15,05,19.60
2018,04,24,15,06,19.60
2018,04,24,15,07,19.60
2018,04,24,15,08,19.60
2018,04,24,15,09,19.70
2018,04,24,15,10,19.80
2018,04,24,15,11,19.90
2018,04,24,15,12,19.90
2018,04,24,15,13,20.00
2018,04,24,15,14,20.10
2018,04,24,15,15,20.00
2018,04,24,15,16,19.80
2018,04,24,15,17,19.70
2018,04,24,15,18,19.70
2018,04,24,15,19,19.80
2018,04,24,15,20,19.80
2018,04,24,15,21,19.90
2018,04,24,15,22,19.90
2018,04,24,15,23,19.90
2018,04,24,15,24,20.00
2018,04,24,15,25,20.10
2018,04,24,15,26,20.10
2018,04,24,15,27,20.10
2018,04,24,15,28,20.00
2018,04,24,15,29,19.90
2018,04,24,15,30,19.90
2018,04,24,15,31,19.90
2018,04,24,15,32,19.80
2018,04,24,15,33,19.80
2018,04,24,15,34,19.80
2018,04,24,15,35,19.90
2018,04,24,15,36,19.90
2018,04,24,15,37,19.90
2018,04,24,15,38,20.00
2018,04,24,15,39,20.10
2018,04,24,15,40,20.10
2018,04,24,15,41,20.10
2018,04,24,15,42,20.10
2018,04,24,15,43,20.10
2018,04,24,15,44,20.20
2018,04,24,15,45,20.10
2018,04,24,15,46,20.10
2018,04,24,15,47,20.10
2018,04,24,15,48,20.10
2018,04,24,15,49,20.00
2018,04,24,15,50,19.90
2018,04,24,15,51,20.00
2018,04,24,15,52,20.20
2018,04,24,15,53,20.20
2018,04,24,15,54,20.10
2018,04,24,15,55,20.00
2018,04,24,15,56,20.00
2018,04,24,15,57,20.10
2018,04,24,15,58,20.10
2018,04,24,15,59,20.20
2018,04,24,16,00,20.20
2018,04,24,16,01,20.30
2018,04,24,16,02,20.40
2018,04,24,16,03,20.50
2018,04,24,16,04,20.60
2018,04,24,16,05,20.50
2018,04,24,16,06,20.50
2018,04,24,16,07,20.50
2018,04,24,16,08,20.40
2018,04,24,16,09,20.40
2018,04,24,16,10,20.30
2018,04,24,16,11,20.30
2018,04,24,16,12,20.20
2018,04,24,16,13,20.30
2018,04,24,16,14,20.40
2018,04,24,16,15,20.40
2018,04,24,16,16,20.40
2018,04,24,16,17,20.40
2018,04,24,16,18,20.40
2018,04,24,16,19,20.30
2018,04,24,16,20,20.20
2018,04,24,16,21,20.20
2018,04,24,16,22,20.20
2018,04,24,16,23,20.20
2018,04,24,16,24,20.10
2018,04,24,16,25,20.00
2018,04,24,16,26,19.90
2018,04,24,16,27,19.90
2018,04,24,16,28,19.90
2018,04,24,16,29,19.90
2018,04,24,16,30,19.90
2018,04,24,16,31,19.90
2018,04,24,16,32,19.90
2018,04,24,16,33,19.90
2018,04,24,16,34,19.90
2018,04,24,16,35,19.90
2018,04,24,16,36,19.90
2018,04,24,16,37,19.80
2018,04,24,16,38,19.80
2018,04,24,16,39,19.90
2018,04,24,16,40,19.90
2018,04,24,16,41,19.80
2018,04,24,16,42,19.70
2018,04,24,16,43,19.70
2018,04,24,16,44,19.80
2018,04,24,16,45,19.90
2018,04,24,16,46,19.90
2018,04,24,16,47,20.00
2018,04,24,16,48,20.10
2018,04,24,16,49,19.90
2018,04,24,16,50,19.90
2018,04,24,16,51,19.90
2018,04,24,16,52,19.80
2018,04,24,16,53,19.80
2018,04,24,16,54,19.80
2018,04,24,16,55,19.80
2018,04,24,16,56,19.80
2018,04,24,16,57,19.80
2018,04,24,16,58,19.80
2018,04,24,16,59,19.80
2018,04,24,17,00,19.90
2018,04,24,17,01,19.90
2018,04,24,17,02,20.00
2018,04,24,17,03,20.10
2018,04,24,17,04,20.10
2018,04,24,17,05,20.10
2018,04,24,17,06,20.00
2018,04,24,17,07,20.00
2018,04,24,17,08,20.10
2018,04,24,17,09,20.10
2018,04,24,17,10,20.10
2018,04,24,17,11,20.20
2018,04,24,17,12,20.20
2018,04,24,17,13,20.20
2018,04,24,17,14,20.20
2018,04,24,17,15,20.20
2018,04,24,17,16,20.20
2018,04,24,17,17,20.20
2018,04,24,17,18,20.20
2018,04,24,17,19,20.20
2018,04,24,17,20,20.20
2018,04,24,17,21,20.20
2018,04,24,17,22,20.20
2018,04,24,17,23,20.20
2018,04,24,17,24,20.20
2018,04,24,17,25,20.20
2018,04,24,17,26,20.20